User: anonymous   Login
Location: Newark
(45.8944°N, 12.5886°E)
Time: 01:41:45
(UTC+00:00)
Language:

EO-88 - Orbit

View from above orbital plane
View from above orbital plane
View from above satellite
View from above satellite

Ground track
Ground track

The orbit data is extracted from the following two-line orbital elements,

1 42017U 17008BX  20092.97977110  .00001635  00000-0  65836-4 0  9991
2 42017  97.3667 161.6412 0005085 219.6001 140.4867 15.26274731173887
Epoch (UTC): 01 April 2020 23:30:52
Eccentricity: 0.0005085
inclination: 97.3667°
perigee height: 483 km
apogee height: 490 km
right ascension of ascending node: 161.6412°
argument of perigee: 219.6001°
revolutions per day: 15.26274731
mean anomaly at epoch: 140.4867°
orbit number at epoch: 17388

The dashed part of the orbit path shows where the satellite is in the earth's shadow,  

DLR